Weather observations for the past three days for
Grant County Airport
| Date | Time (pdt) | Wind (kph) | Vis. (km) | Weather | Sky Cond. | Temperature (ºC) | Relative Humidity | Wind Chill (°C) | Heat Index (°C) | Pressure | Precipitation (cm) | ||||||
|---|---|---|---|---|---|---|---|---|---|---|---|---|---|---|---|---|---|
| Air | Dwpt | 6 hour | altimeter (cm) | sea level (mb) | 1 hr | 3 hr | 6 hr | ||||||||||
| Max. | Min. | ||||||||||||||||
| 02 | 09:52 | SE 22 | 16.09 | Fair | CLR | 19.4 | 8.9 | 51% | 75.51 | 1006.2 | |||||||
| 02 | 08:52 | SE 19 | 16.09 | Fair | CLR | 16.7 | 9.4 | 62% | 75.51 | 1006.3 | |||||||
| 02 | 07:52 | SE 9 | 0.00 | Fair | CLR | 13.9 | 10 | 78% | 75.51 | 1006.2 | |||||||
| 02 | 06:52 | E 7 | 0.00 | Fair | CLR | 14.4 | 10 | 75% | 75.49 | 1005.7 | |||||||
| 02 | 05:52 | S 13 | 0.00 | Partly Cloudy | SCT100 | 13.9 | 10 | 78% | 75.49 | 1006.0 | |||||||
| 02 | 04:52 | S 11 | 0.00 | Fair | CLR | 13.3 | 9.4 | 18.3 | 12.8 | 77% | 75.44 | 1005.1 | |||||
| 02 | 03:52 | S 9 | 0.00 | Fair | CLR | 13.9 | 10.6 | 81% | 75.44 | 1005.1 | |||||||
| 02 | 02:52 | W 9 | 0.00 | Fair | CLR | 16.1 | 10.6 | 70% | 75.39 | 1004.6 | |||||||
| 02 | 01:52 | Calm | 0.00 | Fair | CLR | 15.6 | 10 | 70% | 75.41 | 1005.0 | |||||||
| 02 | 00:52 | S 9 | 0.00 | Fair | CLR | 17.8 | 11.1 | 65% | 75.41 | 1004.9 | |||||||
| 01 | 23:52 | S 13 | 0.00 | Fair | CLR | 17.8 | 8.9 | 56% | 75.41 | 1004.6 | |||||||
| 01 | 22:52 | E 7 | 0.00 | Fair | CLR | 17.2 | 8.9 | 26.7 | 17.2 | 58% | 75.41 | 1004.8 | |||||
| 01 | 21:52 | S 9 | 0.00 | Fair | CLR | 21.7 | 8.3 | 42% | 75.41 | 1004.5 | |||||||
| 01 | 20:52 | Calm | 0.00 | Fair | CLR | 21.1 | 8.3 | 44% | 75.39 | 1004.5 | |||||||
| 01 | 19:52 | SE 9 | 16.09 | Fair | CLR | 22.8 | 8.3 | 40% | 75.34 | 1003.7 | |||||||
| 01 | 17:52 | SE 20 | 16.09 | Fair | CLR | 26.1 | 8.9 | 34% | 26 | 75.36 | 1004.1 | ||||||
| 01 | 16:52 | SE 15 | 16.09 | Fair | CLR | 26.1 | 7.8 | 26.1 | 22.8 | 31% | 26 | 75.36 | 1004.1 | ||||
| 01 | 15:52 | S 11 | 16.09 | Fair | CLR | 25.6 | 7.8 | 32% | 26 | 75.41 | 1004.8 | ||||||
| 01 | 14:52 | S 17 G 33 | 16.09 | Fair | CLR | 23.9 | 8.3 | 37% | 25 | 75.44 | 1005.1 | ||||||
| 01 | 12:52 | SE 15 | 16.09 | Fair | CLR | 23.3 | 6.7 | 34% | 75.46 | 1005.7 | |||||||
| 01 | 11:52 | S 7 | 12.87 | Fair | CLR | 24.4 | 7.8 | 35% | 25 | 75.46 | 1005.7 | ||||||
| 01 | 10:52 | NE 11 | 14.48 | Fair | CLR | 25 | 6.7 | 25 | 13.9 | 31% | 25 | 75.51 | 1006.0 | ||||
| 01 | 09:52 | NE 17 | 16.09 | Fair | CLR | 23.3 | 7.2 | 36% | 75.51 | 1006.2 | |||||||
| 01 | 08:52 | NE 6 | 16.09 | Fair | CLR | 20 | 7.8 | 45% | 75.59 | 1007.1 | |||||||
| 01 | 07:52 | N 13 | 16.09 | Fair | CLR | 17.8 | 7.2 | 50% | 75.51 | 1006.2 | |||||||
| 01 | 06:52 | N 15 | 16.09 | Fair | CLR | 15.6 | 7.8 | 60% | 75.51 | 1005.9 | |||||||
| 01 | 05:52 | Calm | 16.09 | Fair | CLR | 14.4 | 7.8 | 65% | 75.54 | 1006.2 | |||||||
| 01 | 04:52 | N 9 | 16.09 | Fair | CLR | 13.9 | 6.7 | 17.8 | 12.8 | 62% | 75.54 | 1006.3 | |||||
| 01 | 02:52 | N 6 | 16.09 | Fair | CLR | 13.9 | 6.1 | 60% | 75.57 | 1006.7 | |||||||
| 01 | 01:52 | N 13 | 16.09 | Fair | CLR | 16.7 | 5 | 46% | 75.57 | 1006.9 | |||||||
| 01 | 00:52 | N 13 | 16.09 | Fair | CLR | 16.7 | 5.6 | 48% | 75.57 | 1006.9 | |||||||
| 31 | 23:52 | N 11 | 16.09 | Fair | CLR | 16.7 | 6.1 | 50% | 75.59 | 1007.1 | |||||||
| 31 | 22:52 | N 9 | 16.09 | Fair | CLR | 17.8 | 5.6 | 30 | 17.2 | 45% | 75.62 | 1007.4 | |||||
| 31 | 21:52 | N 13 | 16.09 | Fair | CLR | 18.3 | 5.6 | 43% | 75.62 | 1007.8 | |||||||
| 31 | 20:52 | N 9 | 16.09 | Fair | CLR | 20 | 5.6 | 39% | 75.62 | 1007.6 | |||||||
| 31 | 19:52 | NW 15 | 16.09 | Fair | CLR | 23.9 | 6.7 | 33% | 25 | 75.59 | 1007.5 | ||||||
| 31 | 18:52 | NW 6 | 16.09 | Fair | CLR | 28.3 | 3.3 | 20% | 27 | 75.62 | 1007.8 | ||||||
| 31 | 17:52 | Calm | 16.09 | Fair | CLR | 29.4 | 3.9 | 20% | 28 | 75.67 | 1008.3 | ||||||
| 31 | 16:52 | Vrbl 6 | 16.09 | Fair | CLR | 28.9 | 3.3 | 30 | 21.7 | 19% | 27 | 75.74 | 1009.2 | ||||
| 31 | 15:52 | Vrbl 6 | 16.09 | Fair | CLR | 28.9 | 3.3 | 19% | 27 | 75.79 | 1010.0 | ||||||
| 31 | 14:52 | Calm | 16.09 | Fair | CLR | 28.3 | 3.3 | 20% | 27 | 75.87 | 1011.0 | ||||||
| 31 | 13:52 | Calm | 16.09 | Fair | CLR | 26.7 | 3.3 | 22% | 26 | 75.92 | 1011.9 | ||||||
| 31 | 12:52 | Calm | 16.09 | Fair | CLR | 25.6 | 3.3 | 24% | 25 | 76 | 1012.9 | ||||||
| 31 | 11:52 | Calm | 16.09 | Fair | CLR | 23.9 | 3.3 | 26% | 25 | 76.1 | 1014.1 | ||||||
| 31 | 10:52 | Calm | 16.09 | Fair | CLR | 22.2 | 4.4 | 22.2 | 7.2 | 31% | 76.15 | 1014.8 | |||||
| 31 | 09:52 | Vrbl 6 | 16.09 | Fair | CLR | 18.3 | 5.6 | 43% | 76.17 | 1015.2 | |||||||
| 31 | 08:52 | N 9 | 16.09 | Fair | CLR | 15 | 5.6 | 54% | 76.2 | 1015.6 | |||||||
| 31 | 07:52 | N 6 | 16.09 | Fair | CLR | 11.1 | 5.6 | 69% | 76.2 | 1015.8 | |||||||
| 31 | 06:52 | N 9 | 16.09 | Fair | CLR | 8.9 | 5 | 77% | 8 | 76.15 | 1015.3 | ||||||
| 31 | 05:52 | N 13 | 16.09 | Fair | CLR | 7.8 | 5 | 83% | 6 | 76.15 | 1015.0 | ||||||
| 31 | 04:52 | N 11 | 16.09 | Fair | CLR | 8.9 | 5 | 13.9 | 8.3 | 77% | 7 | 76.15 | 1014.9 | ||||
| 31 | 03:52 | N 9 | 16.09 | Fair | CLR | 8.3 | 5.6 | 83% | 7 | 76.15 | 1015.0 | ||||||
| 31 | 02:52 | N 7 | 16.09 | Fair | CLR | 9.4 | 6.1 | 80% | 9 | 76.15 | 1015.1 | ||||||
| 31 | 01:52 | NE 11 | 16.09 | Fair | CLR | 10 | 7.2 | 83% | 9 | 76.17 | 1015.3 | ||||||
| 31 | 00:52 | Calm | 16.09 | Fair | CLR | 11.1 | 6.7 | 75% | 76.17 | 1015.3 | |||||||
| 30 | 23:52 | N 7 | 16.09 | Fair | CLR | 11.7 | 7.2 | 74% | 76.17 | 1015.2 | |||||||
| 30 | 22:52 | N 7 | 16.09 | Fair | CLR | 13.9 | 7.8 | 23.9 | 13.9 | 67% | 76.17 | 1015.3 | |||||
| 30 | 21:52 | Calm | 16.09 | Fair | CLR | 17.2 | 7.2 | 52% | 76.17 | 1015.2 | |||||||
| 30 | 20:52 | SE 7 | 16.09 | Fair | CLR | 17.2 | 7.2 | 52% | 76.15 | 1015.1 | |||||||
| 30 | 19:52 | E 11 | 16.09 | Fair | CLR | 19.4 | 7.2 | 45% | 76.15 | 1015.0 | |||||||
| 30 | 18:52 | SE 15 | 16.09 | Fair | CLR | 21.7 | 6.7 | 38% | 76.15 | 1015.0 | |||||||
| 30 | 17:52 | SE 17 | 16.09 | Fair | CLR | 22.8 | 5.6 | 33% | 76.15 | 1015.0 | |||||||
| 30 | 16:52 | S 19 | 16.09 | Fair | CLR | 23.3 | 5 | 23.9 | 18.3 | 31% | 76.15 | 1015.1 | |||||
| 30 | 14:52 | Vrbl 9 G 30 | 16.09 | Fair | CLR | 22.8 | 5 | 32% | 76.23 | 1016.0 | |||||||
| 30 | 13:52 | SW 24 | 16.09 | Fair | CLR | 22.2 | 3.9 | 30% | 76.28 | 1016.7 | |||||||
| 30 | 12:52 | SW 24 | 16.09 | Fair | CLR | 21.7 | 5 | 34% | 76.28 | 1016.7 | |||||||
| 30 | 11:52 | Calm | 16.09 | Fair | CLR | 20 | 6.1 | 40% | 76.33 | 1017.3 | |||||||
| 30 | 10:52 | SW 11 | 16.09 | Fair | CLR | 18.3 | 6.1 | 18.9 | 6.7 | 45% | 76.33 | 1017.4 | |||||
| Date | Time (pdt) | Wind (kph) | Vis. (km) | Weather | Sky Cond. | Air | Dwpt | Max. | Min. | Relative Humidity | Wind Chill (°C) | Heat Index (°C) | altimeter (cm) | sea level (mb) | 1 hr | 3 hr | 6 hr |
| 6 hour | |||||||||||||||||
| Temperature (ºC) | Pressure | Precipitation (cm) | |||||||||||||||